#timestamp,LO_Frequency,Hit,StdDev 
1513972815.6,286047004.0,N
1513972835.4,286047004.4,N
1513972855.3,286047004.1,N
1513972875.1,286047003.2,N
1513972895.8,286047001.4,N
1513972915.7,286047004.1,N
1513972935.5,286047001.7,N
1513972955.4,286047001.6,N
1513972975.2,286046999.7,N
1513972995.0,286047000.3,N
1513972995.9,286047000.3,N
1513973015.8,286047000.9,N
1513973035.6,286047000.3,N
1513973055.4,286047002.5,N
1513973075.3,286047003.9,N
1513973095.1,286047006.0,Y
1513973115.9,286047004.2,P
1513973135.7,286047001.7,N
1513973155.5,286047002.2,N
1513973175.4,286047002.3,N
1513973195.2,286047000.2,N
1513973215.1,286047000.3,N
1513973216.0,286047000.3,N
1513973235.8,286047002.4,N
1513973255.6,286047002.5,N
1513973275.5,286047001.9,N
1513973295.3,286046999.9,N
1513973315.1,286047000.5,N
1513973335.9,286047000.0,N
1513973355.7,286047001.9,N
1513973375.6,286047002.6,N
1513973395.4,286047002.7,N
1513973415.2,286047002.8,N
1513973435.1,286047002.0,N
1513973436.0,286047002.0,N
1513973455.8,286047002.0,N
1513973475.6,286046999.8,N
1513973495.5,286047002.6,N
1513973515.3,286047002.6,N
1513973535.2,286046998.1,N
1513973555.9,286046998.6,N
1513973575.7,286047000.4,N
1513973595.6,286046999.9,N
1513973615.4,286046999.7,N
1513973635.2,286047000.1,N
1513973655.1,286047002.6,N
1513973656.0,286047002.6,N
1513973675.8,286047001.9,N
1513973695.7,286047002.3,N
1513973715.5,286047002.6,N
1513973735.3,286046999.7,N
1513973755.2,286047002.4,N
1513973775.0,286047002.7,N
1513973775.9,286047002.7,N
1513973795.8,286047002.8,N
1513973815.6,286047002.2,N
1513973835.4,286047000.5,N
1513973855.3,286047000.6,N
1513973875.1,286047002.4,N
1513973895.8,286047002.2,N
1513973915.7,286047000.9,N
1513973935.5,286046999.9,N
1513973955.4,286047002.1,N
1513973975.2,286047004.4,Y
1513973995.0,286047002.4,P
1513973995.9,286047002.4,P
1513974015.8,286046999.9,N
1513974035.6,286047001.9,N
1513974055.4,286047000.7,N
1513974075.3,286046998.9,N
1513974095.1,286046997.0,N
1513974115.9,286046999.2,N
1513974135.7,286046997.4,N
1513974155.5,286046999.3,N
1513974175.4,286047000.6,N
1513974195.1,286047000.5,N
1513974196.0,286047000.5,N
1513974215.8,286047001.0,N
1513974235.7,286046998.9,N
1513974255.5,286046998.8,N
1513974275.3,286046998.1,N
1513974295.2,286046999.0,N
1513974315.0,286046999.3,N
1513974315.9,286046999.3,N
1513974335.8,286046996.8,N
1513974355.6,286046995.0,Y
1513974375.4,286046998.8,P
1513974395.3,286046999.6,N
1513974415.1,286046997.5,P
1513974435.9,286046996.8,Y
1513974455.7,286046998.2,P
1513974475.5,286046999.7,N
1513974495.4,286047002.6,P
1513974515.2,286047001.9,N
1513974535.0,286047001.9,N
1513974535.9,286047001.9,N
1513974555.8,286047001.8,N
1513974575.6,286047002.4,N
1513974595.5,286047001.7,N
1513974615.3,286047004.4,N
1513974635.1,286047002.0,N
1513974655.9,286047000.2,N
1513974675.7,286047002.6,N
1513974695.5,286047002.8,N
1513974715.4,286047002.7,N
1513974735.2,286046999.7,N
1513974755.1,286047001.3,N
1513974756.0,286047001.3,N
1513974775.8,286047001.7,N
1513974795.6,286047002.3,N
1513974815.5,286047002.0,N
1513974835.3,286047004.4,Y
1513974855.1,286047000.0,P
1513974875.9,286047000.4,N
1513974895.7,286047000.9,N
1513974915.6,286046998.3,N
1513974935.4,286047000.4,N
1513974955.2,286047002.7,N
1513974975.1,286047000.4,N
1513974976.0,286047000.4,N
1513974995.8,286047002.4,N
1513975015.7,286047000.0,N
1513975035.5,286047000.1,N
1513975055.3,286047000.8,N
1513975075.2,286047000.5,N
1513975095.9,286046998.2,N
1513975115.7,286046999.4,N
1513975135.6,286046998.5,N
1513975155.4,286047001.2,N
1513975175.2,286047001.2,N
1513975195.1,286047001.1,N
1513975196.0,286047001.1,N
1513975215.3,286047001.0,N
1513975235.1,286047001.1,N
1513975255.9,286047000.8,N
1513975275.7,286047000.8,N
1513975295.5,286046998.1,N
1513975315.4,286046998.3,N
1513975335.2,286046998.6,N
1513975355.0,286046998.5,N
1513975356.0,286046998.5,N
1513975375.8,286047001.1,N
1513975395.6,286046999.1,N
1513975415.5,286046996.7,N
1513975435.3,286046999.4,N
1513975455.2,286046999.5,N
1513975475.9,286047000.8,N
1513975495.7,286046998.3,N
1513975515.6,286046998.7,N
1513975535.4,286047000.5,N
1513975555.2,286047000.2,N
1513975575.1,286047002.6,N
1513975576.0,286047002.6,N
1513975595.8,286046999.8,N
1513975615.7,286046999.7,N
1513975635.5,286046999.9,N
1513975655.3,286047000.5,N
1513975675.2,286046999.9,N
1513975695.0,286047001.1,N
1513975695.9,286047001.1,N
1513975715.7,286047000.0,N
1513975735.6,286047001.2,N
1513975755.4,286047001.2,N
1513975775.3,286046998.5,N
1513975795.1,286047000.7,N
1513975796.0,286047000.7,N
1513975815.8,286046999.9,N
1513975835.7,286047000.2,N
1513975855.5,286047002.8,N
1513975875.4,286047001.7,N
1513975895.2,286046999.7,N
1513975915.0,286047000.9,N
1513975915.9,286047000.9,N
1513975935.8,286047001.2,N
1513975955.6,286047001.2,N
1513975975.4,286046998.1,N
1513975995.3,286047001.1,N
1513976015.1,286047000.3,N
1513976035.9,286047000.0,N
1513976055.7,286047000.4,N
1513976075.5,286047000.3,N
1513976095.4,286047000.0,N
1513976115.2,286046998.2,N
1513976135.0,286046998.1,N
1513976135.9,286046998.1,N
1513976155.8,286046998.5,N
1513976175.6,286046998.3,N
1513976195.5,286046999.9,N
1513976215.3,286047000.9,N
1513976235.1,286047002.7,N
1513976255.9,286047002.5,N
1513976275.7,286047001.3,N
1513976295.5,286047003.3,N
1513976315.4,286047003.2,N
1513976335.2,286047003.2,N
1513976355.1,286047004.2,N
1513976356.0,286047004.2,N
1513976375.8,286047001.4,N
1513976395.6,286047000.2,N
